EW1549 Las Puntas Isla de El Hierro ES current weather conditions

sailwx.info

Wind from 331 at 0 knots gusting 6

Air temperature 17.8° C
Dewpoint 13.1° C

Last reported at 2018-Apr-25 06:01 UTC.
Time now 2018-Apr-25 06:58 UTC

Location: N 27°47' W 017°60'.
View on Google Maps.

See reports from other nearby stations

  
Tides and Currents Weather Stations Pressure Air Temp Water Temp Dewpoint Dewpoint Depression Visibility Wind Speed Wind Dir Waves Ship Positions
date/time (UTC)wind fromknots sea level pressurealtimeterstation pressurevisibilityair tempwater tempwave heightnotes
2018-Apr-25 06:01 331 0 gusting 6 17.8
2018-Apr-25 05:46 274 1 gusting 13 17.8
2018-Apr-25 05:31 334 2 gusting 5 17.8
2018-Apr-25 05:16 342 2 gusting 8 17.8
2018-Apr-25 05:01 241 0 gusting 5 17.8
2018-Apr-25 04:46 199 3 gusting 5 17.8
2018-Apr-25 04:31 209 2 gusting 5 17.8
2018-Apr-25 04:16 196 0 gusting 5 17.8
2018-Apr-25 04:01 155 2 gusting 9 17.8
2018-Apr-25 03:47 342 3 gusting 6 17.8
2018-Apr-25 03:31 348 1 gusting 6 17.8
2018-Apr-25 03:16 032 0 gusting 4 17.8
2018-Apr-25 03:01 051 0 gusting 3 18.3
2018-Apr-25 02:46 030 0 gusting 2 18.3
2018-Apr-25 02:31 030 0 gusting 3 18.3
2018-Apr-25 02:16 003 18.3
2018-Apr-25 02:01 003 18.3
2018-Apr-25 01:46 237 18.3
2018-Apr-25 01:31 236 18.3
2018-Apr-25 01:16 303 0 gusting 3 18.3
2018-Apr-25 01:01 333 18.3
2018-Apr-25 00:46 333 18.3
2018-Apr-25 00:31 335 18.3
2018-Apr-25 00:15 324 0 gusting 6 18.3
2018-Apr-25 00:00 353 3 gusting 8 18.3
2018-Apr-24 23:45 338 0 gusting 6 18.3
2018-Apr-24 23:30 331 5 gusting 7 18.3
2018-Apr-24 23:15 126 0 gusting 6 18.9
2018-Apr-24 23:00 009 2 gusting 10 18.9
2018-Apr-24 22:45 042 1 gusting 9 18.9
2018-Apr-24 22:30 021 18.9
2018-Apr-24 22:15 034 18.9
2018-Apr-24 22:00 033 0 gusting 3 18.9
2018-Apr-24 21:45 334 1 gusting 6 18.9
2018-Apr-24 21:30 057 18.9
2018-Apr-24 21:15 041 1 gusting 6 18.9
2018-Apr-24 21:00 311 5 gusting 9 18.9
2018-Apr-24 20:45 311 0 gusting 12 18.9
2018-Apr-24 20:31 352 1 gusting 9 18.9
2018-Apr-24 20:15 001 4 gusting 12 18.9
2018-Apr-24 20:00 333 0 gusting 9 18.9
2018-Apr-24 19:45 353 2 gusting 13 18.9
2018-Apr-24 19:30 353 7 gusting 13 18.9
2018-Apr-24 19:15 322 4 gusting 14 19.4
2018-Apr-24 19:00 335 6 gusting 15 19.4
2018-Apr-24 18:45 337 6 gusting 19 20.0
2018-Apr-24 18:30 334 2 gusting 18 21.1
2018-Apr-24 18:15 009 10 gusting 15 21.1
2018-Apr-24 18:00 044 9 gusting 17 21.1
2018-Apr-24 17:45 320 2 gusting 16 21.1
2018-Apr-24 17:30 326 6 gusting 15 21.7
2018-Apr-24 17:15 333 8 gusting 13 22.2
2018-Apr-24 17:00 335 9 gusting 15 21.7
2018-Apr-24 16:45 319 8 gusting 18 21.7
2018-Apr-24 16:30 334 8 gusting 19 22.2
2018-Apr-24 16:15 015 7 gusting 19 22.2
2018-Apr-24 16:00 001 11 gusting 17 22.2
2018-Apr-24 15:45 336 10 gusting 19 22.2
2018-Apr-24 15:30 353 8 gusting 16 22.2
2018-Apr-24 15:15 339 7 gusting 16 22.8
2018-Apr-24 15:00 340 8 gusting 16 22.8
2018-Apr-24 14:45 336 11 gusting 17 22.2
2018-Apr-24 14:30 348 6 gusting 19 22.2
2018-Apr-24 14:15 319 7 gusting 16 21.7
2018-Apr-24 14:00 309 3 gusting 11 21.1
2018-Apr-24 13:44 310 6 gusting 17 21.1
2018-Apr-24 13:29 334 4 gusting 19 21.1
2018-Apr-24 13:15 041 10 gusting 15 20.6
2018-Apr-24 12:59 004 10 gusting 23 20.6
2018-Apr-24 12:44 357 10 gusting 20 20.0
2018-Apr-24 12:29 331 9 gusting 18 20.0
2018-Apr-24 12:14 340 4 gusting 20 18.9
2018-Apr-24 11:59 318 10 gusting 20 18.9
2018-Apr-24 11:44 339 6 gusting 14 18.9
2018-Apr-24 11:29 025 7 gusting 18 18.9
2018-Apr-24 11:14 006 10 gusting 17 18.3
2018-Apr-24 10:59 345 10 gusting 17 18.3
2018-Apr-24 10:44 336 12 gusting 22 18.3
2018-Apr-24 10:29 335 12 gusting 17 18.3
2018-Apr-24 10:14 349 8 gusting 20 18.3
2018-Apr-24 09:59 346 7 gusting 21 17.8
2018-Apr-24 09:44 342 8 gusting 15 18.3
2018-Apr-24 09:29 351 7 gusting 17 17.8
2018-Apr-24 09:14 333 7 gusting 12 18.3
2018-Apr-24 08:59 355 6 gusting 13 18.3
2018-Apr-24 08:44 332 10 gusting 17 18.3
2018-Apr-24 08:29 328 10 gusting 15 17.8
2018-Apr-24 08:14 332 8 gusting 15 17.8
2018-Apr-24 07:59 325 6 gusting 11 17.8
2018-Apr-24 07:44 330 6 gusting 12 17.8
2018-Apr-24 07:29 328 6 gusting 10 17.2
2018-Apr-24 07:14 349 5 gusting 10 17.8
2018-Apr-24 07:01 041 6 gusting 12 17.2
2018-Apr-24 06:44 026 6 gusting 13 17.8
2018-Apr-24 06:29 030 8 gusting 15 17.2
2018-Apr-24 06:14 340 9 gusting 14 17.2
2018-Apr-24 05:59 358 7 gusting 17 17.2
2018-Apr-24 05:44 322 6 gusting 15 17.2
2018-Apr-24 05:29 341 7 gusting 13 17.2
2018-Apr-24 05:14 342 7 gusting 12 17.2
2018-Apr-24 04:59 341 8 gusting 16 17.2
2018-Apr-24 04:43 351 4 gusting 11 17.2
2018-Apr-24 04:29 001 8 gusting 14 17.2
2018-Apr-24 04:13 321 7 gusting 18 17.2
2018-Apr-24 03:58 341 9 gusting 14 17.2
2018-Apr-24 03:43 356 8 gusting 17 17.8
2018-Apr-24 03:28 335 10 gusting 15 17.8
2018-Apr-24 03:13 009 10 gusting 17 17.8
2018-Apr-24 02:58 341 7 gusting 14 17.8
2018-Apr-24 02:43 321 6 gusting 19 17.8
2018-Apr-24 02:28 360 10 gusting 15 17.8
2018-Apr-24 02:13 006 8 gusting 15 17.8
2018-Apr-24 01:58 001 4 gusting 10 17.8
2018-Apr-24 01:43 338 6 gusting 12 17.8
2018-Apr-24 01:28 343 3 gusting 6 17.8
2018-Apr-24 01:13 004 6 gusting 11 17.8
2018-Apr-24 00:58 349 9 gusting 13 17.8
2018-Apr-24 00:43 009 6 gusting 12 17.8
2018-Apr-24 00:13 338 4 gusting 21 17.8
2018-Apr-23 23:58 355 6 gusting 13 17.8
2018-Apr-23 23:45 037 6 gusting 11 17.8
2018-Apr-23 23:28 332 6 gusting 13 17.8
2018-Apr-23 23:13 327 6 gusting 13 17.8
2018-Apr-23 22:58 338 8 gusting 13 17.8
2018-Apr-23 22:43 334 2 gusting 8 17.8
2018-Apr-23 22:28 350 4 gusting 9 17.8
2018-Apr-23 22:13 001 8 gusting 13 17.8
2018-Apr-23 21:58 346 6 gusting 13 17.8
2018-Apr-23 21:43 003 3 gusting 12 17.8
2018-Apr-23 21:28 340 6 gusting 10 17.8
2018-Apr-23 21:13 333 4 gusting 10 17.8
2018-Apr-23 20:58 328 5 gusting 11 17.8
2018-Apr-23 20:43 359 6 gusting 13 18.3
2018-Apr-23 20:28 339 6 gusting 12 18.3
2018-Apr-23 20:13 335 6 gusting 13 18.3
2018-Apr-23 19:58 342 8 gusting 14 18.3
2018-Apr-23 19:43 318 7 gusting 11 18.3
2018-Apr-23 19:28 341 4 gusting 8 18.3
2018-Apr-23 19:13 004 3 gusting 7 18.3
2018-Apr-23 18:58 333 6 gusting 9 18.9
2018-Apr-23 18:43 338 6 gusting 10 18.3
2018-Apr-23 18:28 331 6 gusting 11 18.9
2018-Apr-23 18:13 328 5 gusting 10 18.9
2018-Apr-23 17:58 340 6 gusting 9 19.4
2018-Apr-23 17:43 352 7 gusting 10 20.0
2018-Apr-23 17:28 329 6 gusting 10 20.0
2018-Apr-23 17:13 357 7 gusting 11 20.0
2018-Apr-23 16:57 356 7 gusting 12 20.0
2018-Apr-23 16:42 320 5 gusting 9 19.4
2018-Apr-23 16:29 351 6 gusting 9 18.9
2018-Apr-23 15:27 351 7 gusting 13 18.9
2018-Apr-23 15:13 003 7 gusting 12 18.9
2018-Apr-23 14:57 016 6 gusting 11 18.9
2018-Apr-23 14:42 340 6 gusting 12 18.9
2018-Apr-23 14:27 342 7 gusting 11 18.3
2018-Apr-23 14:12 347 7 gusting 12 18.3
2018-Apr-23 13:57 337 9 gusting 13 18.3
2018-Apr-23 13:42 009 9 gusting 14 17.8
2018-Apr-23 13:28 356 4 gusting 8 17.8
2018-Apr-23 13:12 030 4 gusting 8 17.2
2018-Apr-23 12:57 011 5 gusting 13 16.7
2018-Apr-23 12:42 335 10 gusting 17 17.8
2018-Apr-23 12:27 353 8 gusting 13 18.9
2018-Apr-23 12:12 350 9 gusting 16 18.3
2018-Apr-23 11:57 354 7 gusting 14 18.3
2018-Apr-23 11:42 343 6 gusting 13 18.9
2018-Apr-23 11:27 346 6 gusting 10 18.9
2018-Apr-23 11:12 360 6 gusting 12 18.3
2018-Apr-23 10:57 339 18.3
2018-Apr-23 10:42 339 1 gusting 4 18.3
2018-Apr-23 10:27 343 2 gusting 7 18.3
2018-Apr-23 10:12 347 4 gusting 8 18.3
2018-Apr-23 09:57 301 6 gusting 11 18.3
2018-Apr-23 09:42 335 3 gusting 7 18.3
2018-Apr-23 09:27 334 3 gusting 6 17.8
2018-Apr-23 09:12 002 3 gusting 7 17.8
2018-Apr-23 08:57 345 7 gusting 10 17.8
2018-Apr-23 08:42 352 6 gusting 12 17.8
2018-Apr-23 08:27 010 5 gusting 8 17.8
2018-Apr-23 08:12 011 4 gusting 8 17.2
2018-Apr-23 07:58 013 5 gusting 9 17.2
2018-Apr-23 07:42 359 6 gusting 12 17.2
2018-Apr-23 07:27 006 3 gusting 7 16.7
2018-Apr-23 07:12 341 5 gusting 12 16.7
2018-Apr-23 06:57 009 6 gusting 10 17.2
2018-Apr-23 06:42 344 8 gusting 13 17.2
2018-Apr-23 06:27 150 17.2
2018-Apr-23 06:12 103 1 gusting 4 17.2